SCX99 KMCO-GOBD

Flight info

Callsign SCX99
Flight time 7h 9m
Altitude 39000
Route MZULO3 LENDS M203 SNAGY 2960N 2957N 2950N 2945N 2842N 2740N 2434N ULTEM UR976 LUMPO R976 LIGOV
Aircraft A388/J-SADE2E3FGHIJ3J4J5M1RWXY/LB1D1

Departure

Time 2026-04-25 14:33
Airport Orlando International Airport (KMCO)

Arrival

Time 2026-04-25 21:42
Airport Blaise Diagne International Airport (GOBD)
Time Latitude Longitude Altitude Speed Heading
2026-04-25 13:34 28.41084 -81.31687 102 ft 0 kts 358°
2026-04-25 14:03 28.41080 -81.31687 104 ft 1 kts 358°
2026-04-25 14:03 28.41071 -81.31687 102 ft 1 kts 358°
2026-04-25 14:04 28.41062 -81.31687 102 ft 1 kts 358°
2026-04-25 14:04 28.41053 -81.31686 100 ft 1 kts 358°
2026-04-25 14:04 28.41040 -81.31686 101 ft 2 kts 358°
2026-04-25 14:04 28.41027 -81.31679 101 ft 2 kts 326°
2026-04-25 14:05 28.41016 -81.31668 101 ft 2 kts 319°
2026-04-25 14:05 28.41007 -81.31656 101 ft 2 kts 299°
2026-04-25 14:05 28.41002 -81.31634 98 ft 2 kts 271°
2026-04-25 14:05 28.41001 -81.31652 101 ft 3 kts 269°
2026-04-25 14:06 28.41001 -81.31672 100 ft 0 kts 269°
2026-04-25 14:12 28.41001 -81.31678 102 ft 2 kts 268°
2026-04-25 14:12 28.40999 -81.31710 101 ft 6 kts 265°
2026-04-25 14:12 28.40997 -81.31763 102 ft 8 kts 268°
2026-04-25 14:13 28.40996 -81.31809 102 ft 1 kts 268°
2026-04-25 14:13 28.40996 -81.31811 102 ft 0 kts 268°
2026-04-25 14:14 28.40995 -81.31818 102 ft 3 kts 268°
2026-04-25 14:14 28.40998 -81.31856 103 ft 6 kts 284°
2026-04-25 14:15 28.41025 -81.31890 104 ft 8 kts 333°
2026-04-25 14:15 28.41042 -81.31898 104 ft 9 kts 343°
2026-04-25 14:15 28.41190 -81.31916 105 ft 16 kts 357°
2026-04-25 14:15 28.41312 -81.31919 107 ft 19 kts 360°
2026-04-25 14:16 28.41450 -81.31921 103 ft 21 kts 354°
2026-04-25 14:16 28.41604 -81.31963 101 ft 24 kts 350°
2026-04-25 14:16 28.41770 -81.31979 105 ft 24 kts 358°
2026-04-25 14:16 28.41942 -81.31985 104 ft 25 kts 358°
2026-04-25 14:17 28.42118 -81.31989 107 ft 25 kts 360°
2026-04-25 14:17 28.42268 -81.31989 108 ft 11 kts
2026-04-25 14:17 28.42338 -81.31959 108 ft 11 kts 64°
2026-04-25 14:17 28.42347 -81.31859 107 ft 15 kts 88°
2026-04-25 14:18 28.42351 -81.31730 106 ft 18 kts 89°
2026-04-25 14:18 28.42352 -81.31580 103 ft 20 kts 90°
2026-04-25 14:18 28.42351 -81.31413 101 ft 22 kts 90°
2026-04-25 14:18 28.42348 -81.31236 99 ft 18 kts 93°
2026-04-25 14:19 28.42331 -81.31092 101 ft 16 kts 99°
2026-04-25 14:19 28.42318 -81.31005 97 ft 1 kts 99°
2026-04-25 14:19 28.42316 -81.30976 97 ft 6 kts 86°
2026-04-25 14:19 28.42320 -81.30914 97 ft 9 kts 86°
2026-04-25 14:20 28.42325 -81.30832 99 ft 10 kts 86°
2026-04-25 14:20 28.42326 -81.30814 103 ft 5 kts 85°
2026-04-25 14:20 28.42330 -81.30760 107 ft 6 kts 85°
2026-04-25 14:20 28.42334 -81.30693 109 ft 11 kts 85°
2026-04-25 14:21 28.42341 -81.30589 110 ft 15 kts 85°
2026-04-25 14:21 28.42350 -81.30451 106 ft 22 kts 85°
2026-04-25 14:21 28.42356 -81.30368 104 ft 2 kts 85°
2026-04-25 14:21 28.42358 -81.30330 104 ft 7 kts 86°
2026-04-25 14:22 28.42361 -81.30264 106 ft 10 kts 86°
2026-04-25 14:22 28.42364 -81.30164 106 ft 15 kts 89°
2026-04-25 14:22 28.42366 -81.30034 105 ft 17 kts 89°
2026-04-25 14:22 28.42367 -81.29906 104 ft 15 kts 89°
2026-04-25 14:23 28.42405 -81.29808 104 ft 14 kts 22°
2026-04-25 14:23 28.42515 -81.29798 104 ft 18 kts
2026-04-25 14:23 28.42649 -81.29796 105 ft 21 kts
2026-04-25 14:23 28.42800 -81.29795 104 ft 23 kts 359°
2026-04-25 14:24 28.42966 -81.29796 104 ft 25 kts 359°
2026-04-25 14:24 28.43137 -81.29798 104 ft 21 kts 359°
2026-04-25 14:24 28.43245 -81.29799 105 ft 9 kts 359°
2026-04-25 14:24 28.43272 -81.29800 105 ft 0 kts 359°
2026-04-25 14:25 28.43273 -81.29800 105 ft 1 kts 359°
2026-04-25 14:25 28.43278 -81.29800 105 ft 3 kts 359°
2026-04-25 14:26 28.43362 -81.29803 105 ft 12 kts 359°
2026-04-25 14:26 28.43458 -81.29804 107 ft 16 kts 360°
2026-04-25 14:26 28.43530 -81.29792 106 ft 10 kts 40°
2026-04-25 14:26 28.43550 -81.29726 106 ft 1 kts 89°
2026-04-25 14:27 28.43550 -81.29722 106 ft 0 kts 88°
2026-04-25 14:31 28.43551 -81.29700 106 ft 6 kts 89°
2026-04-25 14:31 28.43551 -81.29640 106 ft 9 kts 92°
2026-04-25 14:31 28.43543 -81.29597 105 ft 2 kts 139°
2026-04-25 14:32 28.43535 -81.29593 107 ft 2 kts 172°
2026-04-25 14:32 28.43532 -81.29592 107 ft 0 kts 178°
2026-04-25 14:32 28.43470 -81.29590 106 ft 39 kts 178°
2026-04-25 14:32 28.42877 -81.29581 106 ft 127 kts 179°
2026-04-25 14:33 28.41812 -81.29571 296 ft 166 kts 179°
2026-04-25 14:33 28.40675 -81.29545 1126 ft 161 kts 179°
2026-04-25 14:33 28.39553 -81.29506 1974 ft 164 kts 179°
2026-04-25 14:33 28.38363 -81.29319 2483 ft 184 kts 163°
2026-04-25 14:34 28.37169 -81.28631 2861 ft 200 kts 146°
2026-04-25 14:34 28.35989 -81.27676 3025 ft 216 kts 145°
2026-04-25 14:34 28.34754 -81.26640 3137 ft 233 kts 139°
2026-04-25 14:34 28.33621 -81.25185 3421 ft 258 kts 121°
2026-04-25 14:35 28.33069 -81.23212 3982 ft 269 kts 93°
2026-04-25 14:35 28.33358 -81.21121 4732 ft 271 kts 71°
2026-04-25 14:35 28.34090 -81.19145 5485 ft 271 kts 64°
2026-04-25 14:35 28.34921 -81.17203 6112 ft 276 kts 64°
2026-04-25 14:36 28.35743 -81.15226 6846 ft 279 kts 65°
2026-04-25 14:36 28.36537 -81.13198 7505 ft 283 kts 65°
2026-04-25 14:36 28.37314 -81.11122 8164 ft 288 kts 66°
2026-04-25 14:36 28.38090 -81.09009 8897 ft 291 kts 66°
2026-04-25 14:37 28.38855 -81.06901 9598 ft 294 kts 66°
2026-04-25 14:37 28.39638 -81.04737 10202 ft 300 kts 66°
2026-04-25 14:37 28.40453 -81.02493 10481 ft 315 kts 66°
2026-04-25 14:37 28.41311 -81.00131 10608 ft 334 kts 66°
2026-04-25 14:38 28.42222 -80.97623 10958 ft 348 kts 66°
2026-04-25 14:38 28.43144 -80.95071 11566 ft 352 kts 66°
2026-04-25 14:38 28.44080 -80.92480 12225 ft 355 kts 66°
2026-04-25 14:38 28.45024 -80.89868 12851 ft 360 kts 66°
2026-04-25 14:39 28.45979 -80.87221 13532 ft 363 kts 66°
2026-04-25 14:39 28.46939 -80.84545 13921 ft 368 kts 67°
2026-04-25 14:39 28.47693 -80.81792 14002 ft 371 kts 75°
2026-04-25 14:39 28.48097 -80.78896 14004 ft 371 kts 82°
2026-04-25 14:40 28.48399 -80.75981 14001 ft 370 kts 81°
2026-04-25 14:40 28.48718 -80.73076 14002 ft 371 kts 81°
2026-04-25 14:40 28.49043 -80.70169 14002 ft 371 kts 81°
2026-04-25 14:40 28.49368 -80.67261 13950 ft 371 kts 81°
2026-04-25 14:41 28.49692 -80.64357 13946 ft 371 kts 81°
2026-04-25 14:41 28.50016 -80.61441 13946 ft 371 kts 81°
2026-04-25 14:41 28.50338 -80.58530 13946 ft 371 kts 81°
2026-04-25 14:41 28.50658 -80.55626 13947 ft 371 kts 81°
2026-04-25 14:42 28.50979 -80.52706 13946 ft 371 kts 81°
2026-04-25 14:42 28.51191 -80.50781 13947 ft 371 kts 82°
2026-04-25 14:42 28.51618 -80.46882 13946 ft 372 kts 82°
2026-04-25 14:42 28.51933 -80.44002 13948 ft 372 kts 82°
2026-04-25 14:43 28.52252 -80.41078 14104 ft 374 kts 82°
2026-04-25 14:43 28.52575 -80.38122 14619 ft 377 kts 81°
2026-04-25 14:43 28.52896 -80.35161 15204 ft 380 kts 81°
2026-04-25 14:43 28.53222 -80.32164 15731 ft 384 kts 81°
2026-04-25 14:44 28.53721 -80.29175 16266 ft 386 kts 72°
2026-04-25 14:44 28.54609 -80.26295 16815 ft 387 kts 64°
2026-04-25 14:44 28.55702 -80.23498 17334 ft 390 kts 63°
2026-04-25 14:44 28.56796 -80.20643 17872 ft 394 kts 64°
2026-04-25 14:45 28.57885 -80.17771 18374 ft 398 kts 63°
2026-04-25 14:45 28.58966 -80.14913 18861 ft 399 kts 64°
2026-04-25 14:45 28.60065 -80.12005 19343 ft 401 kts 64°
2026-04-25 14:45 28.61172 -80.09078 19810 ft 404 kts 64°
2026-04-25 14:46 28.62284 -80.06136 20275 ft 406 kts 64°
2026-04-25 14:46 28.63403 -80.03176 20746 ft 408 kts 64°
2026-04-25 14:46 28.64525 -80.00202 21198 ft 410 kts 64°
2026-04-25 14:46 28.65655 -79.97207 21657 ft 413 kts 64°
2026-04-25 14:47 28.66789 -79.94200 22105 ft 415 kts 64°
2026-04-25 14:47 28.67544 -79.92196 22401 ft 416 kts 64°
2026-04-25 14:47 28.69061 -79.88166 22997 ft 419 kts 64°
2026-04-25 14:47 28.70209 -79.85112 23452 ft 421 kts 65°
2026-04-25 14:48 28.71367 -79.82032 23828 ft 424 kts 65°
2026-04-25 14:48 28.72527 -79.78940 24217 ft 425 kts 65°
2026-04-25 14:48 28.73691 -79.75838 24601 ft 427 kts 65°
2026-04-25 14:48 28.74857 -79.72726 24987 ft 428 kts 65°
2026-04-25 14:49 28.76030 -79.69593 25377 ft 430 kts 65°
2026-04-25 14:49 28.77206 -79.66451 25778 ft 432 kts 65°
2026-04-25 14:49 28.78388 -79.63289 26201 ft 434 kts 65°
2026-04-25 14:49 28.79574 -79.60113 26616 ft 437 kts 65°
2026-04-25 14:50 28.80807 -79.56996 27038 ft 438 kts 60°
2026-04-25 14:50 28.82372 -79.54014 27483 ft 439 kts 53°
2026-04-25 14:50 28.84165 -79.51196 27909 ft 441 kts 52°
2026-04-25 14:50 28.85967 -79.48350 28354 ft 443 kts 53°
2026-04-25 14:51 28.87766 -79.45488 28799 ft 446 kts 53°
2026-04-25 14:51 28.89577 -79.42599 29264 ft 448 kts 53°
2026-04-25 14:51 28.91398 -79.39693 29720 ft 451 kts 53°
2026-04-25 14:51 28.93230 -79.36769 30152 ft 454 kts 53°
2026-04-25 14:52 28.95071 -79.33831 30522 ft 457 kts 53°
2026-04-25 14:52 28.96925 -79.30871 30887 ft 460 kts 53°
2026-04-25 14:52 28.98770 -79.27923 31265 ft 463 kts 53°
2026-04-25 14:52 29.00038 -79.25896 31498 ft 465 kts 53°
2026-04-25 14:53 29.02538 -79.21897 31978 ft 469 kts 53°
2026-04-25 14:53 29.04441 -79.18849 32327 ft 472 kts 53°
2026-04-25 14:53 29.06355 -79.15782 32677 ft 476 kts 53°
2026-04-25 14:53 29.08281 -79.12695 33022 ft 479 kts 53°
2026-04-25 14:54 29.10218 -79.09585 33362 ft 482 kts 53°
2026-04-25 14:54 29.12171 -79.06449 33710 ft 485 kts 53°
2026-04-25 14:54 29.14132 -79.03298 34035 ft 488 kts 53°
2026-04-25 14:54 29.16105 -79.00125 34385 ft 490 kts 53°
2026-04-25 14:55 29.18079 -78.96947 34754 ft 491 kts 53°
2026-04-25 14:55 29.20060 -78.93755 35204 ft 490 kts 52°
2026-04-25 14:55 29.21998 -78.90629 35690 ft 488 kts 52°
2026-04-25 14:55 29.23962 -78.87460 36188 ft 486 kts 52°
2026-04-25 14:56 29.25908 -78.84316 36693 ft 484 kts 52°
2026-04-25 14:56 29.27852 -78.81175 37188 ft 481 kts 52°
2026-04-25 14:56 29.29781 -78.78056 37663 ft 479 kts 51°
2026-04-25 14:56 29.31704 -78.74944 38151 ft 478 kts 51°
2026-04-25 14:57 29.33614 -78.71836 38626 ft 476 kts 52°
2026-04-25 14:57 29.35361 -78.68611 38924 ft 479 kts 57°
2026-04-25 14:57 29.38191 -78.61646 39001 ft 488 kts 66°
2026-04-25 14:58 29.40106 -78.54160 39001 ft 493 kts 75°
2026-04-25 14:58 29.41175 -78.46370 39001 ft 495 kts 78°
2026-04-25 14:59 29.42188 -78.38554 39000 ft 496 kts 78°
2026-04-25 14:59 29.43195 -78.30715 39007 ft 497 kts 78°
2026-04-25 15:00 29.44192 -78.22874 39010 ft 497 kts 78°
2026-04-25 15:00 29.45178 -78.15066 39005 ft 498 kts 79°
2026-04-25 15:01 29.46165 -78.07204 39011 ft 498 kts 79°
2026-04-25 15:01 29.47149 -77.99338 39009 ft 498 kts 79°
2026-04-25 15:02 29.48129 -77.91468 39010 ft 498 kts 79°
2026-04-25 15:02 29.49102 -77.83606 39008 ft 498 kts 79°
2026-04-25 15:03 29.50066 -77.75784 39015 ft 498 kts 79°
2026-04-25 15:03 29.51031 -77.67918 39001 ft 498 kts 79°
2026-04-25 15:04 29.51989 -77.60055 39004 ft 497 kts 79°
2026-04-25 15:04 29.52944 -77.52186 39000 ft 497 kts 80°
2026-04-25 15:05 29.53895 -77.44315 39004 ft 498 kts 80°
2026-04-25 15:06 29.55305 -77.32561 39007 ft 498 kts 80°
2026-04-25 15:06 29.56244 -77.24686 39010 ft 498 kts 80°
2026-04-25 15:07 29.57179 -77.16806 39009 ft 498 kts 80°
2026-04-25 15:07 29.58108 -77.08927 39007 ft 498 kts 80°
2026-04-25 15:08 29.59024 -77.01123 39008 ft 498 kts 81°
2026-04-25 15:08 29.59948 -76.93215 39009 ft 498 kts 81°
2026-04-25 15:09 29.60764 -76.85319 39008 ft 498 kts 85°
2026-04-25 15:09 29.61044 -76.73370 39003 ft 499 kts 87°
2026-04-25 15:10 29.61249 -76.65409 39008 ft 499 kts 87°
2026-04-25 15:11 29.61561 -76.53452 39015 ft 499 kts 87°
2026-04-25 15:11 29.61760 -76.45537 39015 ft 499 kts 87°
2026-04-25 15:12 29.62052 -76.33585 39019 ft 499 kts 88°
2026-04-25 15:12 29.62179 -76.28254 39019 ft 499 kts 88°
2026-04-25 15:13 29.62514 -76.13725 39018 ft 498 kts 88°
2026-04-25 15:14 29.62690 -76.05775 39019 ft 498 kts 88°
2026-04-25 15:14 29.62862 -75.97830 39020 ft 497 kts 88°
2026-04-25 15:15 29.63026 -75.89892 39026 ft 497 kts 88°
2026-04-25 15:15 29.63182 -75.82015 39022 ft 496 kts 88°
2026-04-25 15:16 29.63334 -75.74095 39022 ft 496 kts 88°
2026-04-25 15:16 29.63554 -75.62223 39021 ft 495 kts 89°
2026-04-25 15:17 29.63762 -75.50367 39023 ft 494 kts 89°
2026-04-25 15:18 29.63895 -75.42478 39021 ft 494 kts 89°
2026-04-25 15:18 29.64084 -75.30707 39023 ft 493 kts 89°
2026-04-25 15:19 29.64186 -75.24108 39020 ft 493 kts 89°
2026-04-25 15:19 29.64322 -75.14957 39020 ft 492 kts 89°
2026-04-25 15:20 29.64433 -75.07096 39021 ft 492 kts 89°
2026-04-25 15:20 29.64540 -74.99230 39021 ft 492 kts 89°
2026-04-25 15:21 29.64642 -74.91370 39021 ft 491 kts 89°
2026-04-25 15:21 29.64739 -74.83572 39021 ft 491 kts 89°
2026-04-25 15:22 29.64832 -74.75722 39020 ft 491 kts 90°
2026-04-25 15:22 29.64920 -74.67873 39023 ft 491 kts 90°
2026-04-25 15:23 29.65004 -74.60032 39022 ft 491 kts 90°
2026-04-25 15:23 29.65083 -74.52195 39022 ft 491 kts 90°
2026-04-25 15:24 29.65157 -74.44403 39024 ft 490 kts 90°
2026-04-25 15:24 29.65215 -74.37881 39026 ft 490 kts 90°
2026-04-25 15:25 29.65291 -74.28719 39025 ft 491 kts 90°
2026-04-25 15:25 29.65352 -74.20878 39027 ft 491 kts 90°
2026-04-25 15:26 29.65408 -74.13033 39029 ft 491 kts 90°
2026-04-25 15:26 29.65459 -74.05186 39030 ft 491 kts 90°
2026-04-25 15:27 29.65505 -73.97392 39027 ft 491 kts 90°
2026-04-25 15:28 29.65567 -73.85621 39027 ft 491 kts 90°
2026-04-25 15:28 29.65602 -73.77765 39030 ft 491 kts 90°
2026-04-25 15:29 29.65632 -73.69916 39034 ft 492 kts 90°
2026-04-25 15:29 29.65658 -73.62105 39034 ft 492 kts 91°
2026-04-25 15:30 29.65679 -73.54243 39036 ft 492 kts 91°
2026-04-25 15:30 29.65696 -73.46373 39035 ft 492 kts 91°
2026-04-25 15:31 29.65708 -73.38506 39032 ft 493 kts 91°
2026-04-25 15:31 29.65715 -73.30627 39032 ft 493 kts 91°
2026-04-25 15:32 29.65718 -73.22800 39033 ft 493 kts 91°
2026-04-25 15:32 29.65716 -73.14918 39030 ft 493 kts 91°
2026-04-25 15:33 29.65705 -73.03076 39040 ft 494 kts 91°
2026-04-25 15:33 29.65691 -72.95177 39043 ft 494 kts 91°
2026-04-25 15:34 29.65673 -72.87324 39046 ft 495 kts 91°
2026-04-25 15:34 29.65658 -72.82036 39031 ft 495 kts 91°
2026-04-25 15:35 29.65607 -72.67539 39032 ft 495 kts 91°
2026-04-25 15:36 29.65553 -72.55707 39035 ft 496 kts 91°
2026-04-25 15:36 29.65511 -72.47775 39050 ft 496 kts 91°
2026-04-25 15:37 29.65465 -72.39843 39049 ft 496 kts 91°
2026-04-25 15:37 29.65413 -72.31905 39037 ft 497 kts 91°
2026-04-25 15:38 29.65357 -72.23970 39046 ft 497 kts 91°
2026-04-25 15:38 29.65296 -72.16025 39048 ft 497 kts 91°
2026-04-25 15:39 29.65231 -72.08127 39032 ft 497 kts 91°
2026-04-25 15:39 29.65161 -72.00180 39042 ft 497 kts 91°
2026-04-25 15:40 29.65111 -71.94860 39043 ft 498 kts 91°
2026-04-25 15:40 29.65006 -71.84266 39047 ft 498 kts 91°
2026-04-25 15:41 29.64922 -71.76359 39040 ft 498 kts 91°
2026-04-25 15:41 29.64832 -71.68389 39045 ft 499 kts 91°
2026-04-25 15:42 29.64738 -71.60419 39043 ft 499 kts 91°
2026-04-25 15:42 29.64639 -71.52429 39044 ft 500 kts 92°
2026-04-25 15:43 29.64534 -71.44443 39048 ft 500 kts 92°
2026-04-25 15:43 29.64426 -71.36504 39045 ft 500 kts 92°
2026-04-25 15:44 29.64312 -71.28503 39038 ft 500 kts 92°
2026-04-25 15:44 29.64194 -71.20509 39047 ft 500 kts 92°
2026-04-25 15:45 29.64070 -71.12511 39046 ft 501 kts 92°
2026-04-25 15:45 29.63986 -71.07206 39049 ft 501 kts 92°
2026-04-25 15:46 29.63810 -70.96551 39045 ft 501 kts 92°
2026-04-25 15:46 29.63672 -70.88549 39044 ft 501 kts 92°
2026-04-25 15:47 29.63529 -70.80536 39043 ft 501 kts 92°
2026-04-25 15:47 29.63382 -70.72524 39045 ft 502 kts 92°
2026-04-25 15:48 29.63229 -70.64503 39041 ft 502 kts 92°
2026-04-25 15:48 29.63072 -70.56530 39040 ft 502 kts 92°
2026-04-25 15:49 29.62910 -70.48504 39047 ft 503 kts 92°
2026-04-25 15:49 29.62743 -70.40468 39041 ft 503 kts 92°
2026-04-25 15:50 29.62570 -70.32424 39039 ft 503 kts 92°
2026-04-25 15:50 29.62393 -70.24397 39050 ft 504 kts 92°
2026-04-25 15:51 29.62273 -70.19050 39048 ft 504 kts 92°
2026-04-25 15:51 29.62025 -70.08339 39046 ft 504 kts 92°
2026-04-25 15:52 29.61833 -70.00281 39048 ft 505 kts 92°
2026-04-25 15:52 29.61635 -69.92212 39046 ft 505 kts 92°
2026-04-25 15:53 29.61433 -69.84153 39049 ft 505 kts 92°
2026-04-25 15:53 29.61227 -69.76130 39048 ft 506 kts 92°
2026-04-25 15:54 29.61015 -69.68049 39046 ft 506 kts 92°
2026-04-25 15:54 29.60798 -69.59973 39051 ft 506 kts 92°
2026-04-25 15:55 29.60576 -69.51885 39057 ft 507 kts 92°
2026-04-25 15:55 29.60348 -69.43785 39053 ft 507 kts 92°
2026-04-25 15:56 29.60117 -69.35739 39053 ft 507 kts 92°
2026-04-25 15:56 29.59880 -69.27632 39051 ft 508 kts 93°
2026-04-25 15:57 29.59637 -69.19516 39054 ft 508 kts 93°
2026-04-25 15:57 29.59389 -69.11398 39051 ft 509 kts 93°
2026-04-25 15:58 29.59136 -69.03270 39059 ft 509 kts 93°
2026-04-25 15:58 29.58879 -68.95190 39058 ft 510 kts 93°
2026-04-25 15:59 29.58616 -68.87048 39056 ft 510 kts 93°
2026-04-25 15:59 29.58348 -68.78914 39059 ft 511 kts 93°
2026-04-25 16:00 29.58165 -68.73451 39053 ft 511 kts 93°
2026-04-25 16:00 29.57794 -68.62583 39056 ft 511 kts 93°
2026-04-25 16:01 29.57510 -68.54422 39056 ft 512 kts 93°
2026-04-25 16:01 29.57222 -68.46293 39057 ft 512 kts 93°
2026-04-25 16:02 29.56928 -68.38116 39057 ft 513 kts 93°
2026-04-25 16:02 29.56628 -68.29923 39054 ft 513 kts 94°
2026-04-25 16:03 29.56322 -68.21727 39056 ft 514 kts 94°
2026-04-25 16:03 29.56013 -68.13575 39056 ft 515 kts 94°
2026-04-25 16:04 29.55697 -68.05352 39055 ft 515 kts 94°
2026-04-25 16:04 29.55376 -67.97131 39049 ft 516 kts 94°
2026-04-25 16:05 29.55049 -67.88905 39055 ft 516 kts 94°
2026-04-25 16:06 29.54550 -67.76591 39053 ft 517 kts 94°
2026-04-25 16:06 29.54209 -67.68334 39051 ft 518 kts 94°
2026-04-25 16:07 29.53862 -67.60055 39051 ft 519 kts 94°
2026-04-25 16:07 29.53510 -67.51768 39053 ft 520 kts 94°
2026-04-25 16:08 29.53154 -67.43523 39054 ft 521 kts 94°
2026-04-25 16:08 29.52790 -67.35213 39058 ft 522 kts 94°
2026-04-25 16:09 29.52421 -67.26885 39055 ft 523 kts 95°
2026-04-25 16:09 29.52045 -67.18538 39053 ft 524 kts 95°
2026-04-25 16:10 29.51664 -67.10184 39052 ft 525 kts 95°
2026-04-25 16:10 29.51279 -67.01863 39056 ft 526 kts 95°
2026-04-25 16:11 29.50886 -66.93484 39058 ft 526 kts 95°
2026-04-25 16:11 29.50486 -66.85084 39059 ft 527 kts 95°
2026-04-25 16:12 29.50082 -66.76681 39059 ft 528 kts 95°
2026-04-25 16:12 29.49671 -66.68264 39060 ft 528 kts 95°
2026-04-25 16:13 29.49258 -66.59898 39056 ft 529 kts 95°
2026-04-25 16:13 29.48836 -66.51468 39056 ft 529 kts 95°
2026-04-25 16:14 29.48408 -66.43030 39057 ft 530 kts 95°
2026-04-25 16:14 29.47974 -66.34587 39058 ft 530 kts 95°
2026-04-25 16:15 29.47538 -66.26199 39053 ft 530 kts 95°
2026-04-25 16:15 29.47094 -66.17751 39052 ft 531 kts 96°
2026-04-25 16:16 29.46644 -66.09293 39053 ft 531 kts 96°
2026-04-25 16:16 29.46188 -66.00831 39055 ft 531 kts 96°
2026-04-25 16:17 29.45726 -65.92362 39051 ft 532 kts 96°
2026-04-25 16:17 29.45338 -65.85319 39054 ft 532 kts 96°
2026-04-25 16:18 29.44789 -65.75471 39054 ft 533 kts 96°
2026-04-25 16:18 29.44310 -65.66981 39057 ft 533 kts 96°
2026-04-25 16:19 29.43826 -65.58490 39052 ft 533 kts 96°
2026-04-25 16:19 29.43419 -65.51431 39054 ft 534 kts 96°
2026-04-25 16:20 29.42675 -65.38685 39053 ft 534 kts 96°
2026-04-25 16:21 29.41918 -65.25939 39052 ft 535 kts 96°
2026-04-25 16:21 29.41410 -65.17488 39050 ft 535 kts 96°
2026-04-25 16:22 29.40892 -65.08964 39044 ft 536 kts 96°
2026-04-25 16:22 29.40282 -64.99055 39047 ft 537 kts 96°
2026-04-25 16:23 29.39841 -64.91921 39079 ft 534 kts 97°
2026-04-25 16:23 29.39313 -64.83508 39072 ft 532 kts 97°
2026-04-25 16:24 29.38777 -64.75052 39051 ft 531 kts 97°
2026-04-25 16:24 29.38237 -64.66616 39033 ft 530 kts 98°
2026-04-25 16:25 29.37692 -64.58178 39027 ft 530 kts 98°
2026-04-25 16:25 29.37141 -64.49743 39020 ft 531 kts 98°
2026-04-25 16:26 29.36587 -64.41345 39023 ft 533 kts 98°
2026-04-25 16:26 29.36023 -64.32868 39029 ft 535 kts 99°
2026-04-25 16:27 29.35451 -64.24357 39033 ft 537 kts 99°
2026-04-25 16:27 29.34871 -64.15805 39034 ft 539 kts 99°
2026-04-25 16:28 29.34287 -64.07270 39042 ft 542 kts 100°
2026-04-25 16:28 29.33691 -63.98651 39051 ft 544 kts 100°
2026-04-25 16:29 29.33087 -63.89987 39056 ft 546 kts 101°
2026-04-25 16:29 29.32475 -63.81295 39061 ft 548 kts 101°
2026-04-25 16:30 29.31856 -63.72579 39061 ft 550 kts 101°
2026-04-25 16:30 29.31234 -63.63903 39056 ft 551 kts 102°
2026-04-25 16:31 29.30601 -63.55152 39053 ft 552 kts 102°
2026-04-25 16:31 29.29961 -63.46394 39051 ft 552 kts 102°
2026-04-25 16:32 29.29314 -63.37623 39049 ft 553 kts 103°
2026-04-25 16:32 29.28662 -63.28848 39046 ft 553 kts 103°
2026-04-25 16:33 29.28008 -63.20130 39047 ft 554 kts 103°
2026-04-25 16:33 29.27342 -63.11341 39042 ft 554 kts 103°
2026-04-25 16:34 29.26670 -63.02548 39041 ft 554 kts 103°
2026-04-25 16:34 29.25993 -62.93751 39038 ft 555 kts 103°
2026-04-25 16:35 29.25313 -62.85003 39041 ft 555 kts 103°
2026-04-25 16:35 29.24623 -62.76199 39035 ft 556 kts 103°
2026-04-25 16:36 29.23926 -62.67382 39036 ft 556 kts 103°
2026-04-25 16:36 29.23223 -62.58561 39033 ft 557 kts 103°
2026-04-25 16:37 29.22514 -62.49740 39035 ft 557 kts 103°
2026-04-25 16:37 29.21804 -62.40966 39033 ft 557 kts 103°
2026-04-25 16:38 29.21083 -62.32136 39035 ft 557 kts 103°
2026-04-25 16:38 29.20356 -62.23312 39038 ft 557 kts 103°
2026-04-25 16:39 29.19623 -62.14482 39039 ft 557 kts 103°
2026-04-25 16:39 29.18890 -62.05725 39039 ft 557 kts 103°
2026-04-25 16:40 29.18148 -61.96920 39040 ft 556 kts 103°
2026-04-25 16:40 29.17399 -61.88118 39037 ft 556 kts 103°
2026-04-25 16:41 29.16646 -61.79323 39037 ft 555 kts 103°
2026-04-25 16:41 29.15510 -61.66202 39028 ft 554 kts 103°
2026-04-25 16:42 29.14744 -61.57431 39034 ft 554 kts 103°
2026-04-25 16:42 29.13972 -61.48663 39032 ft 554 kts 103°
2026-04-25 16:43 29.13196 -61.39905 39031 ft 554 kts 103°
2026-04-25 16:43 29.12412 -61.31137 39027 ft 554 kts 103°
2026-04-25 16:44 29.11629 -61.22433 39029 ft 554 kts 103°
2026-04-25 16:44 29.10833 -61.13655 39027 ft 555 kts 103°
2026-04-25 16:45 29.10031 -61.04881 39029 ft 556 kts 103°
2026-04-25 16:45 29.09222 -60.96088 39032 ft 556 kts 103°
2026-04-25 16:46 29.08407 -60.87288 39029 ft 557 kts 103°
2026-04-25 16:46 29.07724 -60.79966 39033 ft 558 kts 103°
2026-04-25 16:47 29.06765 -60.69716 39035 ft 558 kts 103°
2026-04-25 16:47 29.05935 -60.60886 39032 ft 559 kts 103°
2026-04-25 16:48 29.05098 -60.52048 39036 ft 559 kts 103°
2026-04-25 16:48 29.04262 -60.43276 39034 ft 559 kts 103°
2026-04-25 16:49 29.03414 -60.34439 39034 ft 560 kts 103°
2026-04-25 16:49 29.02559 -60.25601 39028 ft 560 kts 103°
2026-04-25 16:50 29.01698 -60.16753 39028 ft 560 kts 103°
2026-04-25 16:50 29.00837 -60.07970 39031 ft 560 kts 103°
2026-04-25 16:51 28.99965 -59.99126 39031 ft 561 kts 103°
2026-04-25 16:51 28.99816 -59.91663 39022 ft 569 kts 93°
2026-04-25 16:52 29.00142 -59.81093 39023 ft 569 kts 94°
2026-04-25 16:52 29.00284 -59.72112 39023 ft 569 kts 95°
2026-04-25 16:53 29.00402 -59.58538 39025 ft 570 kts 95°
2026-04-25 16:54 29.00470 -59.49464 39026 ft 571 kts 95°
2026-04-25 16:54 29.00533 -59.40386 39027 ft 572 kts 95°
2026-04-25 16:55 29.00591 -59.31362 39026 ft 572 kts 95°
2026-04-25 16:55 29.00642 -59.22263 39028 ft 573 kts 95°
2026-04-25 16:56 29.00688 -59.13161 39028 ft 573 kts 95°
2026-04-25 16:56 29.00728 -59.04062 39026 ft 573 kts 95°
2026-04-25 16:57 29.00761 -58.95017 39033 ft 573 kts 95°
2026-04-25 16:57 29.00788 -58.85904 39030 ft 573 kts 95°
2026-04-25 16:58 29.00809 -58.76803 39031 ft 574 kts 95°
2026-04-25 16:58 29.00824 -58.67686 39027 ft 574 kts 95°
2026-04-25 16:59 29.00833 -58.58571 39030 ft 574 kts 95°
2026-04-25 16:59 29.00835 -58.49442 39026 ft 574 kts 95°
2026-04-25 17:00 29.00832 -58.40384 39027 ft 574 kts 95°
2026-04-25 17:00 29.00822 -58.31251 39028 ft 575 kts 95°
2026-04-25 17:01 29.00807 -58.22118 39029 ft 575 kts 95°
2026-04-25 17:01 29.00785 -58.12985 39028 ft 576 kts 95°
2026-04-25 17:02 29.00756 -58.03824 39026 ft 576 kts 95°
2026-04-25 17:02 29.00722 -57.94671 39028 ft 577 kts 95°
2026-04-25 17:03 29.00681 -57.85516 39033 ft 577 kts 95°
2026-04-25 17:03 29.00635 -57.76411 39023 ft 577 kts 95°
2026-04-25 17:04 29.00582 -57.67236 39026 ft 578 kts 95°
2026-04-25 17:04 29.00522 -57.58047 39033 ft 578 kts 95°
2026-04-25 17:05 29.00457 -57.48870 39025 ft 578 kts 95°
2026-04-25 17:05 29.00347 -57.35141 39028 ft 579 kts 95°
2026-04-25 17:06 29.00265 -57.25942 39027 ft 579 kts 95°
2026-04-25 17:06 29.00178 -57.16750 39029 ft 579 kts 95°
2026-04-25 17:07 29.00085 -57.07544 39023 ft 579 kts 95°
2026-04-25 17:07 28.99992 -56.98411 39024 ft 580 kts 94°
2026-04-25 17:08 29.00191 -56.89191 39022 ft 581 kts 91°
2026-04-25 17:08 29.00477 -56.79965 39025 ft 581 kts 91°
2026-04-25 17:09 29.00720 -56.70740 39020 ft 581 kts 92°
2026-04-25 17:09 29.00942 -56.61561 39017 ft 581 kts 92°
2026-04-25 17:10 29.01154 -56.52334 39019 ft 582 kts 92°
2026-04-25 17:10 29.01359 -56.43091 39017 ft 582 kts 92°
2026-04-25 17:11 29.01556 -56.33852 39018 ft 582 kts 92°
2026-04-25 17:11 29.01747 -56.24607 39018 ft 582 kts 92°
2026-04-25 17:12 29.01932 -56.15352 39014 ft 582 kts 92°
2026-04-25 17:12 29.02111 -56.06102 39018 ft 583 kts 92°
2026-04-25 17:13 29.02255 -55.98411 39017 ft 583 kts 92°
2026-04-25 17:13 29.02449 -55.87641 39012 ft 583 kts 92°
2026-04-25 17:14 29.02609 -55.78375 39012 ft 584 kts 92°
2026-04-25 17:14 29.02762 -55.69101 39011 ft 584 kts 92°
2026-04-25 17:15 29.02909 -55.59880 39011 ft 584 kts 92°
2026-04-25 17:15 29.03050 -55.50590 39007 ft 585 kts 92°
2026-04-25 17:16 29.03185 -55.41300 39007 ft 585 kts 92°
2026-04-25 17:16 29.03314 -55.31996 39012 ft 586 kts 92°
2026-04-25 17:17 29.03436 -55.22682 39007 ft 586 kts 92°
2026-04-25 17:17 29.03552 -55.13364 39011 ft 586 kts 92°
2026-04-25 17:18 29.03661 -55.04117 39012 ft 586 kts 92°
2026-04-25 17:18 29.03764 -54.94795 39009 ft 587 kts 92°
2026-04-25 17:19 29.03861 -54.85472 39007 ft 587 kts 92°
2026-04-25 17:19 29.03951 -54.76153 39005 ft 587 kts 92°
2026-04-25 17:20 29.04034 -54.66891 39002 ft 587 kts 92°
2026-04-25 17:20 29.04112 -54.57559 38999 ft 587 kts 92°
2026-04-25 17:21 29.04183 -54.48236 38999 ft 587 kts 92°
2026-04-25 17:21 29.04248 -54.38904 39006 ft 587 kts 92°
2026-04-25 17:22 29.04296 -54.31152 39000 ft 587 kts 92°
2026-04-25 17:22 29.04357 -54.20308 39000 ft 587 kts 92°
2026-04-25 17:23 29.04403 -54.10966 39000 ft 587 kts 92°
2026-04-25 17:23 29.04442 -54.01634 38998 ft 587 kts 92°
2026-04-25 17:24 29.04474 -53.92357 38997 ft 588 kts 92°
2026-04-25 17:24 29.04500 -53.83028 39000 ft 588 kts 92°
2026-04-25 17:25 29.04520 -53.73680 39000 ft 588 kts 92°
2026-04-25 17:25 29.04533 -53.64335 38996 ft 588 kts 92°
2026-04-25 17:26 29.04539 -53.54988 39010 ft 588 kts 92°
2026-04-25 17:26 29.04540 -53.45647 38998 ft 588 kts 92°
2026-04-25 17:27 29.04533 -53.36363 38999 ft 588 kts 92°
2026-04-25 17:27 29.04526 -53.30105 39000 ft 588 kts 92°
2026-04-25 17:28 29.04501 -53.17657 39005 ft 589 kts 92°
2026-04-25 17:28 29.04476 -53.08296 39004 ft 589 kts 92°
2026-04-25 17:29 29.04444 -52.98946 39002 ft 589 kts 92°
2026-04-25 17:29 29.04405 -52.89645 38999 ft 589 kts 92°
2026-04-25 17:30 29.04360 -52.80288 39000 ft 589 kts 92°
2026-04-25 17:30 29.04309 -52.70929 39003 ft 589 kts 92°
2026-04-25 17:31 29.04251 -52.61567 39001 ft 589 kts 92°
2026-04-25 17:31 29.04186 -52.52199 38996 ft 589 kts 92°
2026-04-25 17:32 29.04115 -52.42894 38998 ft 589 kts 92°
2026-04-25 17:32 29.04038 -52.33538 38996 ft 589 kts 92°
2026-04-25 17:33 29.03954 -52.24168 39003 ft 590 kts 92°
2026-04-25 17:33 29.03863 -52.14796 38993 ft 590 kts 92°
2026-04-25 17:34 29.03767 -52.05490 39001 ft 590 kts 92°
2026-04-25 17:34 29.03663 -51.96113 38997 ft 590 kts 92°
2026-04-25 17:35 29.03553 -51.86738 38993 ft 590 kts 92°
2026-04-25 17:35 29.03436 -51.77357 38994 ft 591 kts 92°
2026-04-25 17:36 29.03313 -51.67971 38994 ft 591 kts 92°
2026-04-25 17:36 29.03184 -51.58646 38996 ft 591 kts 92°
2026-04-25 17:37 29.03047 -51.49259 38996 ft 591 kts 92°
2026-04-25 17:37 29.02904 -51.39866 38996 ft 591 kts 92°
2026-04-25 17:38 29.02806 -51.33641 38995 ft 591 kts 92°
2026-04-25 17:38 29.02599 -51.21075 39000 ft 592 kts 92°
2026-04-25 17:39 29.02437 -51.11745 38998 ft 592 kts 93°
2026-04-25 17:39 29.02268 -51.02335 38996 ft 592 kts 93°
2026-04-25 17:40 29.02092 -50.92940 38998 ft 592 kts 93°
2026-04-25 17:40 29.01910 -50.83532 38998 ft 592 kts 93°
2026-04-25 17:41 29.01721 -50.74124 38998 ft 592 kts 93°
2026-04-25 17:41 29.01526 -50.64772 39001 ft 593 kts 93°
2026-04-25 17:42 29.01324 -50.55359 38998 ft 593 kts 93°
2026-04-25 17:42 29.01115 -50.45939 38996 ft 593 kts 93°
2026-04-25 17:43 29.00900 -50.36522 38993 ft 593 kts 93°
2026-04-25 17:43 29.00678 -50.27099 39002 ft 593 kts 93°
2026-04-25 17:44 29.00456 -50.17738 39008 ft 594 kts 93°
2026-04-25 17:44 29.00227 -50.08317 39009 ft 594 kts 93°
2026-04-25 17:45 29.00070 -50.02009 39003 ft 594 kts 93°
2026-04-25 17:45 29.00092 -49.89447 39005 ft 595 kts 89°
2026-04-25 17:46 29.00328 -49.80001 39009 ft 595 kts 89°
2026-04-25 17:46 29.00511 -49.70615 39003 ft 595 kts 90°
2026-04-25 17:47 29.00666 -49.61177 39006 ft 595 kts 90°
2026-04-25 17:47 29.00810 -49.51729 39006 ft 595 kts 90°
2026-04-25 17:48 29.01014 -49.37561 39011 ft 595 kts 90°
2026-04-25 17:49 29.01141 -49.28184 39016 ft 595 kts 90°
2026-04-25 17:49 29.01262 -49.18733 39015 ft 595 kts 90°
2026-04-25 17:50 29.01377 -49.09287 39017 ft 595 kts 90°
2026-04-25 17:50 29.01485 -48.99844 39012 ft 594 kts 90°
2026-04-25 17:51 29.01586 -48.90408 39018 ft 594 kts 90°
2026-04-25 17:51 29.01681 -48.81036 39013 ft 594 kts 90°
2026-04-25 17:52 29.01769 -48.71608 39017 ft 593 kts 90°
2026-04-25 17:52 29.01851 -48.62179 39017 ft 593 kts 90°
2026-04-25 17:53 29.01925 -48.52756 39013 ft 593 kts 90°
2026-04-25 17:53 29.01994 -48.43335 39018 ft 593 kts 90°
2026-04-25 17:54 29.02055 -48.33976 39023 ft 593 kts 90°
2026-04-25 17:54 29.02110 -48.24559 39023 ft 593 kts 90°
2026-04-25 17:55 29.02159 -48.15143 39024 ft 593 kts 90°
2026-04-25 17:55 29.02201 -48.05716 39025 ft 593 kts 90°
2026-04-25 17:56 29.02237 -47.96292 39028 ft 593 kts 90°
2026-04-25 17:56 29.02266 -47.86859 39035 ft 593 kts 90°
2026-04-25 17:57 29.02288 -47.77501 39034 ft 593 kts 90°
2026-04-25 17:57 29.02304 -47.68067 39033 ft 593 kts 90°
2026-04-25 17:58 29.02313 -47.58636 39037 ft 594 kts 90°
2026-04-25 17:58 29.02316 -47.49208 39039 ft 594 kts 90°
2026-04-25 17:59 29.02312 -47.39839 39038 ft 594 kts 90°
2026-04-25 17:59 29.02302 -47.30406 39039 ft 594 kts 90°
2026-04-25 18:00 29.02285 -47.20981 39039 ft 594 kts 90°
2026-04-25 18:00 29.02261 -47.11543 39040 ft 594 kts 90°
2026-04-25 18:01 29.02232 -47.02185 39038 ft 593 kts 90°
2026-04-25 18:01 29.02195 -46.92754 39045 ft 593 kts 90°
2026-04-25 18:02 29.02152 -46.83321 39045 ft 593 kts 90°
2026-04-25 18:02 29.02102 -46.73897 39043 ft 593 kts 90°
2026-04-25 18:03 29.02045 -46.64471 39043 ft 593 kts 90°
2026-04-25 18:03 29.01983 -46.55105 39046 ft 593 kts 90°
2026-04-25 18:04 29.01913 -46.45682 39049 ft 593 kts 90°
2026-04-25 18:04 29.01837 -46.36263 39057 ft 593 kts 90°
2026-04-25 18:05 29.01754 -46.26831 39054 ft 593 kts 90°
2026-04-25 18:05 29.01666 -46.17482 39056 ft 593 kts 90°
2026-04-25 18:06 29.01570 -46.08061 39053 ft 593 kts 90°
2026-04-25 18:06 29.01468 -45.98646 39059 ft 593 kts 90°
2026-04-25 18:07 29.01359 -45.89233 39056 ft 593 kts 90°
2026-04-25 18:07 29.01244 -45.79821 39060 ft 593 kts 90°
2026-04-25 18:08 29.01123 -45.70469 39061 ft 593 kts 90°
2026-04-25 18:08 29.00994 -45.61054 39060 ft 593 kts 90°
2026-04-25 18:09 29.00859 -45.51648 39063 ft 593 kts 90°
2026-04-25 18:09 29.00718 -45.42226 39063 ft 593 kts 90°
2026-04-25 18:10 29.00571 -45.32883 39064 ft 593 kts 90°
2026-04-25 18:10 29.00416 -45.23466 39067 ft 593 kts 90°
2026-04-25 18:11 29.00257 -45.14054 39067 ft 592 kts 90°
2026-04-25 18:11 28.99975 -45.04669 39067 ft 592 kts 96°
2026-04-25 18:12 28.98445 -44.95449 39065 ft 589 kts 109°
2026-04-25 18:12 28.95730 -44.86729 39061 ft 587 kts 114°
2026-04-25 18:13 28.92929 -44.77972 39064 ft 587 kts 113°
2026-04-25 18:13 28.90127 -44.69226 39067 ft 587 kts 113°
2026-04-25 18:14 28.85916 -44.56170 39065 ft 588 kts 113°
2026-04-25 18:14 28.83082 -44.47417 39067 ft 588 kts 114°
2026-04-25 18:15 28.80240 -44.38662 39070 ft 589 kts 114°
2026-04-25 18:15 28.77394 -44.29916 39072 ft 589 kts 114°
2026-04-25 18:16 28.74557 -44.21218 39078 ft 589 kts 114°
2026-04-25 18:17 28.70261 -44.08090 39080 ft 590 kts 114°
2026-04-25 18:17 28.67412 -43.99411 39081 ft 590 kts 114°
2026-04-25 18:18 28.64512 -43.90599 39082 ft 590 kts 114°
2026-04-25 18:18 28.61629 -43.81860 39082 ft 590 kts 114°
2026-04-25 18:19 28.58741 -43.73126 39083 ft 590 kts 114°
2026-04-25 18:19 28.55866 -43.64454 39083 ft 589 kts 114°
2026-04-25 18:20 28.52966 -43.55730 39078 ft 589 kts 114°
2026-04-25 18:20 28.50064 -43.47020 39077 ft 589 kts 114°
2026-04-25 18:21 28.47153 -43.38306 39085 ft 590 kts 114°
2026-04-25 18:21 28.44235 -43.29592 39081 ft 590 kts 114°
2026-04-25 18:22 28.41334 -43.20947 39084 ft 590 kts 114°
2026-04-25 18:22 28.38402 -43.12234 39088 ft 590 kts 114°
2026-04-25 18:23 28.35469 -43.03538 39091 ft 590 kts 114°
2026-04-25 18:23 28.32545 -42.94889 39092 ft 590 kts 114°
2026-04-25 18:24 28.29596 -42.86190 39092 ft 590 kts 114°
2026-04-25 18:24 28.26645 -42.77505 39095 ft 590 kts 114°
2026-04-25 18:25 28.23686 -42.68816 39092 ft 590 kts 114°
2026-04-25 18:25 28.21223 -42.61598 39097 ft 590 kts 114°
2026-04-25 18:26 28.18253 -42.52916 39087 ft 590 kts 114°
2026-04-25 18:26 28.15281 -42.44250 39092 ft 590 kts 114°
2026-04-25 18:27 28.11817 -42.34175 39090 ft 590 kts 114°
2026-04-25 18:27 28.09313 -42.26909 39096 ft 591 kts 114°
2026-04-25 18:28 28.06350 -42.18325 38882 ft 587 kts 114°
2026-04-25 18:28 28.04862 -42.14026 38285 ft 586 kts 114°
2026-04-25 18:28 28.03382 -42.09751 38100 ft 584 kts 114°
2026-04-25 18:29 27.98564 -41.97015 38098 ft 586 kts 123°
2026-04-25 18:30 27.90657 -41.80937 38096 ft 591 kts 122°
2026-04-25 18:30 27.86672 -41.72807 38099 ft 592 kts 122°
2026-04-25 18:31 27.82673 -41.64677 38097 ft 592 kts 122°
2026-04-25 18:31 27.78666 -41.56547 38097 ft 592 kts 122°
2026-04-25 18:32 27.74653 -41.48422 38101 ft 593 kts 122°
2026-04-25 18:32 27.70662 -41.40355 38100 ft 593 kts 122°
2026-04-25 18:33 27.66635 -41.32233 38101 ft 593 kts 122°
2026-04-25 18:33 27.62605 -41.24119 38100 ft 593 kts 122°
2026-04-25 18:34 27.58570 -41.16011 38098 ft 593 kts 122°
2026-04-25 18:34 27.54556 -41.07960 38103 ft 593 kts 122°
2026-04-25 18:35 27.50511 -40.99863 38120 ft 593 kts 122°
2026-04-25 18:35 27.46464 -40.91776 38114 ft 593 kts 122°
2026-04-25 18:36 27.42420 -40.83711 38385 ft 590 kts 123°
2026-04-25 18:36 27.40401 -40.79689 38650 ft 591 kts 123°
2026-04-25 18:36 27.38375 -40.75659 38901 ft 591 kts 123°
2026-04-25 18:37 27.36356 -40.71646 39080 ft 589 kts 123°
2026-04-25 18:37 27.34364 -40.67689 39104 ft 588 kts 123°
2026-04-25 18:37 27.30331 -40.59691 39102 ft 588 kts 123°
2026-04-25 18:38 27.26288 -40.51689 39104 ft 588 kts 123°
2026-04-25 18:38 27.22247 -40.43705 39106 ft 588 kts 123°
2026-04-25 18:39 27.18197 -40.35718 39102 ft 588 kts 123°
2026-04-25 18:39 27.14143 -40.27737 39104 ft 588 kts 123°
2026-04-25 18:40 27.10108 -40.19808 39103 ft 589 kts 123°
2026-04-25 18:40 27.06041 -40.11831 39104 ft 589 kts 123°
2026-04-25 18:41 27.01971 -40.03863 39103 ft 589 kts 123°
2026-04-25 18:41 26.97948 -39.95857 39102 ft 590 kts 120°
2026-04-25 18:42 26.94803 -39.89066 39103 ft 590 kts 120°
2026-04-25 18:42 26.90409 -39.79571 39104 ft 591 kts 120°
2026-04-25 18:43 26.86596 -39.71426 39107 ft 591 kts 120°
2026-04-25 18:43 26.82770 -39.63288 39104 ft 591 kts 120°
2026-04-25 18:44 26.78934 -39.55150 39107 ft 591 kts 120°
2026-04-25 18:44 26.75096 -39.47027 39103 ft 591 kts 120°
2026-04-25 18:45 26.71275 -39.38954 39106 ft 591 kts 120°
2026-04-25 18:45 26.67425 -39.30836 39108 ft 591 kts 120°
2026-04-25 18:46 26.63566 -39.22716 39108 ft 591 kts 120°
2026-04-25 18:46 26.59709 -39.14612 39102 ft 591 kts 120°
2026-04-25 18:47 26.55868 -39.06559 39104 ft 591 kts 120°
2026-04-25 18:47 26.51999 -38.98462 39096 ft 591 kts 120°
2026-04-25 18:48 26.48129 -38.90378 39099 ft 591 kts 120°
2026-04-25 18:48 26.44249 -38.82287 39099 ft 591 kts 120°
2026-04-25 18:49 26.40365 -38.74204 39100 ft 591 kts 120°
2026-04-25 18:49 26.36478 -38.66129 39102 ft 591 kts 120°
2026-04-25 18:50 26.32609 -38.58106 39101 ft 591 kts 120°
2026-04-25 18:50 26.28712 -38.50039 39103 ft 591 kts 120°
2026-04-25 18:51 26.25469 -38.43337 39102 ft 591 kts 120°
2026-04-25 18:51 26.20903 -38.33919 39102 ft 591 kts 120°
2026-04-25 18:52 26.17018 -38.25922 39103 ft 591 kts 120°
2026-04-25 18:52 26.13102 -38.17875 39101 ft 591 kts 120°
2026-04-25 18:53 26.09183 -38.09837 39101 ft 591 kts 120°
2026-04-25 18:53 26.05259 -38.01802 39101 ft 591 kts 120°
2026-04-25 18:54 25.99385 -37.89803 39101 ft 592 kts 120°
2026-04-25 18:55 25.95444 -37.81769 39103 ft 592 kts 120°
2026-04-25 18:55 25.91506 -37.73756 39103 ft 592 kts 120°
2026-04-25 18:56 25.87558 -37.65738 39109 ft 591 kts 120°
2026-04-25 18:56 25.83632 -37.57779 39112 ft 591 kts 120°
2026-04-25 18:57 25.79678 -37.49777 39109 ft 591 kts 120°
2026-04-25 18:57 25.75720 -37.41781 39094 ft 591 kts 120°
2026-04-25 18:58 25.71763 -37.33801 39090 ft 591 kts 120°
2026-04-25 18:58 25.65808 -37.21819 39090 ft 591 kts 120°
2026-04-25 18:59 25.57885 -37.05924 39110 ft 591 kts 120°
2026-04-25 19:00 25.51915 -36.93984 39106 ft 591 kts 120°
2026-04-25 19:01 25.45935 -36.82056 39106 ft 591 kts 120°
2026-04-25 19:01 25.41976 -36.74175 39112 ft 590 kts 120°
2026-04-25 19:02 25.35982 -36.62272 39107 ft 590 kts 121°
2026-04-25 19:03 25.30656 -36.51718 39106 ft 591 kts 121°
2026-04-25 19:03 25.25972 -36.42459 39108 ft 591 kts 121°
2026-04-25 19:04 25.19972 -36.30622 39114 ft 591 kts 121°
2026-04-25 19:05 25.11919 -36.14786 39114 ft 592 kts 121°
2026-04-25 19:06 25.07881 -36.06866 39121 ft 592 kts 121°
2026-04-25 19:06 25.01850 -35.95059 39117 ft 592 kts 121°
2026-04-25 19:07 24.95775 -35.83198 39118 ft 592 kts 121°
2026-04-25 19:08 24.89726 -35.71416 39118 ft 591 kts 121°
2026-04-25 19:09 24.82300 -35.56993 39117 ft 591 kts 121°
2026-04-25 19:10 24.75521 -35.43867 39112 ft 591 kts 121°
2026-04-25 19:10 24.71458 -35.36017 39116 ft 591 kts 121°
2026-04-25 19:11 24.67416 -35.28219 39113 ft 591 kts 121°
2026-04-25 19:11 24.63344 -35.20377 39112 ft 591 kts 121°
2026-04-25 19:12 24.59266 -35.12536 39112 ft 591 kts 121°
2026-04-25 19:12 24.55186 -35.04705 39117 ft 591 kts 121°
2026-04-25 19:13 24.51103 -34.96881 39123 ft 591 kts 121°
2026-04-25 19:13 24.47041 -34.89109 39125 ft 590 kts 121°
2026-04-25 19:14 24.42950 -34.81295 39122 ft 590 kts 121°
2026-04-25 19:14 24.38862 -34.73499 39122 ft 590 kts 121°
2026-04-25 19:15 24.34765 -34.65699 39119 ft 590 kts 121°
2026-04-25 19:15 24.30668 -34.57911 39124 ft 590 kts 121°
2026-04-25 19:16 24.26597 -34.50185 39122 ft 589 kts 121°
2026-04-25 19:16 24.22491 -34.42405 39124 ft 589 kts 121°
2026-04-25 19:17 24.18386 -34.34639 39122 ft 589 kts 121°
2026-04-25 19:17 24.14270 -34.26867 39125 ft 589 kts 121°
2026-04-25 19:18 24.10185 -34.19159 39124 ft 589 kts 121°
2026-04-25 19:18 24.06069 -34.11401 39125 ft 589 kts 122°
2026-04-25 19:19 24.01950 -34.03649 39127 ft 589 kts 122°
2026-04-25 19:19 23.97672 -33.96023 39120 ft 588 kts 124°
2026-04-25 19:20 23.93357 -33.88483 39123 ft 588 kts 123°
2026-04-25 19:20 23.89032 -33.80896 39129 ft 588 kts 124°
2026-04-25 19:21 23.84687 -33.73316 39122 ft 588 kts 124°
2026-04-25 19:21 23.78156 -33.61971 39124 ft 588 kts 124°
2026-04-25 19:22 23.73827 -33.54467 39125 ft 588 kts 124°
2026-04-25 19:23 23.67283 -33.43144 39125 ft 588 kts 124°
2026-04-25 19:23 23.60732 -33.31835 39123 ft 588 kts 124°
2026-04-25 19:24 23.56368 -33.24317 39124 ft 587 kts 124°
2026-04-25 19:25 23.47653 -33.09333 39121 ft 587 kts 124°
2026-04-25 19:25 23.43279 -33.01830 39119 ft 587 kts 124°
2026-04-25 19:26 23.38899 -32.94327 39122 ft 587 kts 124°
2026-04-25 19:26 23.34552 -32.86893 39121 ft 586 kts 124°
2026-04-25 19:27 23.30908 -32.80668 39120 ft 586 kts 124°
2026-04-25 19:27 23.25783 -32.71927 39116 ft 586 kts 124°
2026-04-25 19:28 23.21397 -32.64459 39118 ft 586 kts 124°
2026-04-25 19:28 23.17007 -32.56994 39118 ft 586 kts 124°
2026-04-25 19:29 23.12642 -32.49584 39114 ft 586 kts 124°
2026-04-25 19:29 23.08250 -32.42137 39116 ft 586 kts 125°
2026-04-25 19:30 23.03852 -32.34691 39114 ft 585 kts 125°
2026-04-25 19:30 22.99452 -32.27253 39103 ft 585 kts 125°
2026-04-25 19:31 22.95081 -32.19875 39102 ft 585 kts 125°
2026-04-25 19:31 22.90681 -32.12457 39117 ft 585 kts 125°
2026-04-25 19:32 22.86277 -32.05044 39114 ft 585 kts 125°
2026-04-25 19:32 22.82612 -31.98883 39113 ft 584 kts 125°
2026-04-25 19:33 22.77494 -31.90292 39118 ft 584 kts 125°
2026-04-25 19:33 22.73088 -31.82906 39115 ft 583 kts 125°
2026-04-25 19:34 22.68684 -31.75534 39113 ft 583 kts 125°
2026-04-25 19:34 22.64274 -31.68164 39113 ft 583 kts 125°
2026-04-25 19:35 22.59870 -31.60813 39107 ft 582 kts 125°
2026-04-25 19:35 22.55485 -31.53505 39108 ft 582 kts 125°
2026-04-25 19:36 22.51077 -31.46168 39103 ft 582 kts 126°
2026-04-25 19:36 22.46661 -31.38828 39105 ft 582 kts 126°
2026-04-25 19:37 22.42251 -31.31508 39105 ft 581 kts 126°
2026-04-25 19:37 22.37831 -31.24183 39101 ft 581 kts 126°
2026-04-25 19:38 22.34569 -31.18781 39102 ft 581 kts 126°
2026-04-25 19:38 22.30211 -31.11576 39098 ft 580 kts 126°
2026-04-25 19:39 22.25797 -31.04287 39099 ft 580 kts 126°
2026-04-25 19:39 22.21378 -30.96999 39100 ft 580 kts 126°
2026-04-25 19:40 22.16962 -30.89728 39100 ft 579 kts 126°
2026-04-25 19:40 22.12544 -30.82461 39101 ft 579 kts 126°
2026-04-25 19:41 22.08155 -30.75253 39097 ft 579 kts 126°
2026-04-25 19:41 22.05197 -30.70401 39099 ft 579 kts 126°
2026-04-25 19:42 21.99315 -30.60763 39102 ft 578 kts 126°
2026-04-25 19:42 21.94892 -30.53528 39101 ft 578 kts 126°
2026-04-25 19:43 21.90503 -30.46359 39098 ft 577 kts 126°
2026-04-25 19:43 21.86082 -30.39147 39098 ft 577 kts 126°
2026-04-25 19:44 21.81662 -30.31946 39100 ft 576 kts 126°
2026-04-25 19:44 21.77245 -30.24759 39092 ft 576 kts 126°
2026-04-25 19:45 21.72828 -30.17581 39109 ft 575 kts 126°
2026-04-25 19:45 21.68437 -30.10455 39109 ft 575 kts 126°
2026-04-25 19:46 21.64019 -30.03296 39107 ft 574 kts 126°
2026-04-25 19:46 21.59603 -29.96148 39100 ft 574 kts 126°
2026-04-25 19:47 21.55190 -29.89010 39098 ft 573 kts 126°
2026-04-25 19:47 21.50783 -29.81887 39092 ft 572 kts 126°
2026-04-25 19:48 21.46243 -29.74966 39090 ft 571 kts 128°
2026-04-25 19:48 21.41668 -29.68002 39091 ft 570 kts 128°
2026-04-25 19:49 21.38612 -29.63353 39087 ft 570 kts 128°
2026-04-25 19:49 21.32516 -29.54119 39089 ft 569 kts 128°
2026-04-25 19:50 21.25680 -29.43798 39084 ft 568 kts 128°
2026-04-25 19:51 21.21103 -29.36900 39077 ft 568 kts 128°
2026-04-25 19:51 21.16521 -29.30001 39079 ft 567 kts 128°
2026-04-25 19:52 21.11947 -29.23123 39079 ft 567 kts 128°
2026-04-25 19:52 21.07408 -29.16306 39081 ft 566 kts 128°
2026-04-25 19:53 21.02836 -29.09449 39075 ft 566 kts 128°
2026-04-25 19:53 20.98262 -29.02597 39074 ft 565 kts 129°
2026-04-25 19:54 20.93694 -28.95761 39072 ft 565 kts 129°
2026-04-25 19:54 20.89124 -28.88932 39075 ft 564 kts 129°
2026-04-25 19:55 20.84587 -28.82158 39073 ft 564 kts 129°
2026-04-25 19:55 20.80017 -28.75345 39069 ft 563 kts 129°
2026-04-25 19:56 20.75452 -28.68547 39071 ft 563 kts 129°
2026-04-25 19:56 20.70911 -28.61794 39064 ft 563 kts 129°
2026-04-25 19:57 20.66348 -28.55014 39065 ft 562 kts 129°
2026-04-25 19:57 20.61783 -28.48241 39063 ft 561 kts 129°
2026-04-25 19:58 20.57222 -28.41480 39064 ft 561 kts 129°
2026-04-25 19:58 20.52662 -28.34729 39066 ft 560 kts 129°
2026-04-25 19:59 20.48134 -28.28034 39063 ft 560 kts 129°
2026-04-25 19:59 20.43577 -28.21304 39062 ft 560 kts 129°
2026-04-25 20:00 20.39020 -28.14581 39061 ft 559 kts 129°
2026-04-25 20:00 20.34461 -28.07862 39058 ft 559 kts 129°
2026-04-25 20:01 20.27660 -27.97855 39058 ft 558 kts 129°
2026-04-25 20:01 20.23107 -27.91166 39059 ft 558 kts 129°
2026-04-25 20:02 20.18558 -27.84488 39057 ft 557 kts 129°
2026-04-25 20:02 20.14004 -27.77812 39058 ft 557 kts 129°
2026-04-25 20:03 20.09488 -27.71200 39057 ft 556 kts 129°
2026-04-25 20:03 20.04938 -27.64544 39055 ft 556 kts 129°
2026-04-25 20:04 20.00387 -27.57895 39052 ft 556 kts 129°
2026-04-25 20:04 19.95840 -27.51259 39045 ft 555 kts 129°
2026-04-25 20:05 19.91289 -27.44625 39045 ft 555 kts 129°
2026-04-25 20:05 19.86770 -27.38044 39048 ft 555 kts 129°
2026-04-25 20:06 19.82223 -27.31431 39045 ft 555 kts 129°
2026-04-25 20:06 19.77673 -27.24819 39054 ft 554 kts 129°
2026-04-25 20:07 19.73127 -27.18222 39050 ft 554 kts 129°
2026-04-25 20:07 19.68568 -27.11612 39047 ft 554 kts 129°
2026-04-25 20:08 19.64050 -27.05069 39045 ft 553 kts 129°
2026-04-25 20:08 19.59498 -26.98484 39041 ft 553 kts 129°
2026-04-25 20:09 19.54945 -26.91905 39042 ft 553 kts 129°
2026-04-25 20:09 19.50394 -26.85337 39043 ft 553 kts 129°
2026-04-25 20:10 19.45844 -26.78775 39041 ft 552 kts 129°
2026-04-25 20:10 19.41326 -26.72269 39041 ft 552 kts 129°
2026-04-25 20:11 19.36777 -26.65723 39043 ft 552 kts 129°
2026-04-25 20:11 19.32234 -26.59194 39036 ft 551 kts 129°
2026-04-25 20:12 19.27677 -26.52651 39038 ft 551 kts 129°
2026-04-25 20:12 19.24668 -26.48335 39040 ft 550 kts 129°
2026-04-25 20:13 19.18635 -26.39691 39039 ft 550 kts 129°
2026-04-25 20:13 19.14093 -26.33189 39041 ft 549 kts 129°
2026-04-25 20:14 19.09562 -26.26712 39042 ft 548 kts 129°
2026-04-25 20:14 19.05019 -26.20224 39040 ft 548 kts 129°
2026-04-25 20:15 19.00493 -26.13764 39053 ft 547 kts 129°
2026-04-25 20:15 18.95997 -26.07351 39052 ft 546 kts 129°
2026-04-25 20:16 18.91493 -26.00890 39035 ft 546 kts 129°
2026-04-25 20:16 18.87025 -25.94428 39026 ft 545 kts 129°
2026-04-25 20:17 18.82546 -25.87959 39022 ft 544 kts 129°
2026-04-25 20:17 18.78105 -25.81561 39036 ft 544 kts 129°
2026-04-25 20:18 18.73636 -25.75130 39034 ft 543 kts 129°
2026-04-25 20:18 18.69184 -25.68730 39029 ft 542 kts 129°
2026-04-25 20:19 18.64717 -25.62313 39025 ft 542 kts 129°
2026-04-25 20:19 18.60256 -25.55912 39022 ft 541 kts 129°
2026-04-25 20:20 18.55802 -25.49529 39017 ft 541 kts 129°
2026-04-25 20:20 18.51374 -25.43188 39017 ft 540 kts 129°
2026-04-25 20:21 18.46919 -25.36816 39018 ft 540 kts 129°
2026-04-25 20:21 18.42463 -25.30448 39015 ft 540 kts 129°
2026-04-25 20:22 18.39516 -25.26240 39010 ft 539 kts 129°
2026-04-25 20:22 18.33584 -25.17778 39010 ft 539 kts 129°
2026-04-25 20:23 18.29134 -25.11437 39008 ft 539 kts 129°
2026-04-25 20:23 18.24675 -25.05091 39011 ft 539 kts 129°
2026-04-25 20:24 18.20219 -24.98755 39006 ft 539 kts 129°
2026-04-25 20:24 18.15762 -24.92423 39009 ft 538 kts 129°
2026-04-25 20:25 18.11306 -24.86099 39007 ft 538 kts 129°
2026-04-25 20:25 18.06880 -24.79823 39006 ft 538 kts 129°
2026-04-25 20:26 18.02422 -24.73508 39005 ft 538 kts 129°
2026-04-25 20:26 17.97968 -24.67205 39005 ft 538 kts 129°
2026-04-25 20:27 17.93510 -24.60903 39004 ft 537 kts 129°
2026-04-25 20:27 17.89048 -24.54600 39005 ft 537 kts 129°
2026-04-25 20:28 17.84619 -24.48350 39005 ft 537 kts 129°
2026-04-25 20:28 17.80163 -24.42068 39001 ft 537 kts 130°
2026-04-25 20:29 17.75700 -24.35783 39001 ft 536 kts 130°
2026-04-25 20:29 17.71242 -24.29509 39000 ft 536 kts 130°
2026-04-25 20:30 17.66759 -24.23269 39001 ft 536 kts 130°
2026-04-25 20:30 17.62290 -24.17074 38997 ft 536 kts 130°
2026-04-25 20:31 17.57800 -24.10844 38996 ft 535 kts 130°
2026-04-25 20:31 17.53313 -24.04622 38994 ft 535 kts 130°
2026-04-25 20:32 17.49583 -23.99453 38996 ft 535 kts 130°
2026-04-25 20:32 17.45095 -23.93241 38993 ft 535 kts 130°
2026-04-25 20:33 17.39879 -23.86026 38992 ft 535 kts 130°
2026-04-25 20:33 17.36874 -23.81874 38988 ft 534 kts 130°
2026-04-25 20:34 17.31657 -23.74671 38987 ft 534 kts 130°
2026-04-25 20:34 17.27240 -23.68571 38990 ft 512 kts 130°
2026-04-25 20:35 17.25119 -23.65643 38990 ft 497 kts 130°
2026-04-25 20:35 17.23059 -23.62801 38991 ft 484 kts 130°
2026-04-25 20:35 17.18370 -23.56354 38991 ft 481 kts 130°
2026-04-25 20:36 17.14965 -23.51676 38986 ft 484 kts 130°
2026-04-25 20:36 17.10909 -23.46100 38985 ft 484 kts 130°
2026-04-25 20:37 17.06843 -23.40513 38986 ft 483 kts 130°
2026-04-25 20:37 17.02771 -23.34925 38986 ft 483 kts 130°
2026-04-25 20:38 16.98726 -23.29378 38993 ft 483 kts 130°
2026-04-25 20:38 16.94655 -23.23799 38988 ft 483 kts 130°
2026-04-25 20:39 16.90577 -23.18214 38983 ft 483 kts 130°
2026-04-25 20:39 16.87191 -23.13582 38976 ft 483 kts 130°
2026-04-25 20:40 16.82427 -23.07069 38975 ft 483 kts 131°
2026-04-25 20:40 16.78351 -23.01502 38976 ft 482 kts 131°
2026-04-25 20:41 16.74484 -22.95841 38974 ft 485 kts 123°
2026-04-25 20:41 16.71674 -22.89432 38973 ft 488 kts 111°
2026-04-25 20:42 16.69389 -22.82779 38968 ft 487 kts 111°
2026-04-25 20:42 16.67071 -22.76145 38963 ft 487 kts 112°
2026-04-25 20:43 16.64755 -22.69514 38960 ft 486 kts 112°
2026-04-25 20:43 16.62431 -22.62860 38960 ft 491 kts 112°
2026-04-25 20:44 16.60088 -22.56158 38956 ft 492 kts 112°
2026-04-25 20:44 16.57764 -22.49515 38947 ft 490 kts 112°
2026-04-25 20:45 16.55426 -22.42841 38956 ft 490 kts 112°
2026-04-25 20:45 16.53084 -22.36165 38955 ft 490 kts 112°
2026-04-25 20:46 16.50742 -22.29498 38957 ft 490 kts 112°
2026-04-25 20:46 16.48401 -22.22839 38962 ft 490 kts 112°
2026-04-25 20:47 16.46072 -22.16223 38958 ft 489 kts 112°
2026-04-25 20:47 16.43726 -22.09565 38961 ft 489 kts 112°
2026-04-25 20:48 16.41379 -22.02913 38964 ft 489 kts 112°
2026-04-25 20:48 16.39032 -21.96266 38960 ft 489 kts 112°
2026-04-25 20:49 16.36682 -21.89622 38964 ft 489 kts 112°
2026-04-25 20:49 16.34333 -21.82985 38960 ft 489 kts 112°
2026-04-25 20:50 16.31761 -21.76502 38960 ft 486 kts 120°
2026-04-25 20:50 16.28467 -21.70379 38957 ft 485 kts 122°
2026-04-25 20:51 16.25139 -21.64273 38956 ft 485 kts 122°
2026-04-25 20:51 16.21813 -21.58175 38959 ft 485 kts 122°
2026-04-25 20:52 16.19050 -21.53108 38956 ft 485 kts 122°
2026-04-25 20:52 16.15184 -21.46024 38961 ft 484 kts 122°
2026-04-25 20:53 16.11859 -21.39928 38959 ft 484 kts 122°
2026-04-25 20:53 16.08527 -21.33835 38956 ft 484 kts 122°
2026-04-25 20:54 16.05199 -21.27754 38954 ft 484 kts 122°
2026-04-25 20:54 16.01865 -21.21671 38951 ft 484 kts 122°
2026-04-25 20:55 15.98531 -21.15589 38952 ft 484 kts 122°
2026-04-25 20:55 15.95224 -21.09558 38952 ft 484 kts 122°
2026-04-25 20:56 15.91785 -21.03567 38949 ft 481 kts 127°
2026-04-25 20:56 15.87982 -20.97855 38945 ft 481 kts 128°
2026-04-25 20:57 15.84255 -20.92083 38946 ft 481 kts 127°
2026-04-25 20:57 15.80589 -20.86276 38944 ft 481 kts 126°
2026-04-25 20:58 15.76952 -20.80498 38946 ft 481 kts 126°
2026-04-25 20:58 15.73293 -20.74695 38945 ft 481 kts 126°
2026-04-25 20:59 15.69631 -20.68891 38951 ft 481 kts 126°
2026-04-25 20:59 15.65966 -20.63089 38945 ft 480 kts 126°
2026-04-25 21:00 15.62921 -20.58271 38947 ft 480 kts 126°
2026-04-25 21:01 15.56835 -20.48652 38939 ft 480 kts 126°
2026-04-25 21:01 15.53175 -20.42872 38941 ft 480 kts 126°
2026-04-25 21:02 15.49507 -20.37085 38943 ft 479 kts 126°
2026-04-25 21:02 15.45872 -20.31354 38942 ft 479 kts 126°
2026-04-25 21:03 15.42208 -20.25582 38936 ft 479 kts 126°
2026-04-25 21:03 15.38548 -20.19821 38938 ft 479 kts 126°
2026-04-25 21:04 15.34885 -20.14058 38939 ft 478 kts 126°
2026-04-25 21:04 15.31249 -20.08344 38942 ft 478 kts 126°
2026-04-25 21:05 15.27589 -20.02595 38933 ft 478 kts 126°
2026-04-25 21:05 15.23930 -19.96852 38930 ft 478 kts 126°
2026-04-25 21:06 15.20270 -19.91111 38930 ft 477 kts 126°
2026-04-25 21:06 15.16612 -19.85379 38928 ft 477 kts 126°
2026-04-25 21:07 15.12951 -19.79647 38929 ft 477 kts 126°
2026-04-25 21:07 15.09317 -19.73960 38929 ft 477 kts 126°
2026-04-25 21:08 15.05664 -19.68248 38932 ft 476 kts 126°
2026-04-25 21:08 15.02006 -19.62532 38934 ft 476 kts 126°
2026-04-25 21:09 14.96525 -19.53975 38920 ft 476 kts 126°
2026-04-25 21:09 14.92869 -19.48273 38926 ft 475 kts 126°
2026-04-25 21:10 14.89243 -19.42622 38924 ft 475 kts 126°
2026-04-25 21:10 14.85589 -19.36931 38926 ft 475 kts 126°
2026-04-25 21:11 14.81938 -19.31249 38919 ft 474 kts 126°
2026-04-25 21:11 14.78289 -19.25574 38923 ft 474 kts 126°
2026-04-25 21:12 14.74661 -19.19936 38923 ft 474 kts 126°
2026-04-25 21:12 14.71602 -19.15185 38923 ft 474 kts 126°
2026-04-25 21:13 14.67362 -19.08605 38921 ft 473 kts 126°
2026-04-25 21:13 14.63712 -19.02944 38917 ft 473 kts 126°
2026-04-25 21:14 14.60062 -18.97288 38913 ft 473 kts 126°
2026-04-25 21:14 14.56411 -18.91635 38913 ft 473 kts 126°
2026-04-25 21:15 14.52790 -18.86030 38907 ft 473 kts 126°
2026-04-25 21:15 14.49146 -18.80396 38909 ft 472 kts 126°
2026-04-25 21:16 14.45494 -18.74751 38909 ft 472 kts 126°
2026-04-25 21:16 14.41847 -18.69120 38907 ft 472 kts 126°
2026-04-25 21:17 14.38202 -18.63495 38906 ft 471 kts 126°
2026-04-25 21:17 14.34583 -18.57914 38901 ft 471 kts 126°
2026-04-25 21:18 14.30941 -18.52301 38902 ft 471 kts 126°
2026-04-25 21:18 14.27298 -18.46691 38894 ft 470 kts 126°
2026-04-25 21:19 14.25486 -18.43902 38671 ft 468 kts 126°
2026-04-25 21:19 14.23666 -18.41102 37977 ft 472 kts 126°
2026-04-25 21:19 14.21829 -18.38279 37143 ft 478 kts 126°
2026-04-25 21:19 14.19965 -18.35415 36225 ft 485 kts 125°
2026-04-25 21:20 14.18068 -18.32502 35282 ft 493 kts 125°
2026-04-25 21:20 14.16799 -18.30551 34637 ft 498 kts 125°
2026-04-25 21:20 14.14217 -18.26585 33207 ft 509 kts 124°
2026-04-25 21:20 14.12238 -18.23546 32415 ft 509 kts 124°
2026-04-25 21:21 14.10275 -18.20532 31819 ft 504 kts 124°
2026-04-25 21:21 14.08332 -18.17549 31214 ft 500 kts 124°
2026-04-25 21:21 14.06399 -18.14584 30594 ft 496 kts 123°
2026-04-25 21:21 14.04483 -18.11647 30011 ft 492 kts 123°
2026-04-25 21:22 14.02582 -18.08731 29351 ft 488 kts 123°
2026-04-25 21:22 14.00854 -18.05728 28354 ft 489 kts 114°
2026-04-25 21:22 13.99727 -18.02441 27566 ft 485 kts 102°
2026-04-25 21:22 13.99273 -17.99093 26943 ft 477 kts 90°
2026-04-25 21:23 13.99471 -17.95708 26308 ft 469 kts 78°
2026-04-25 21:23 14.00316 -17.92493 25647 ft 462 kts 66°
2026-04-25 21:23 14.01759 -17.89581 24977 ft 454 kts 54°
2026-04-25 21:23 14.03738 -17.87082 24314 ft 447 kts 42°
2026-04-25 21:24 14.06100 -17.85061 23953 ft 434 kts 36°
2026-04-25 21:24 14.08380 -17.83116 23806 ft 419 kts 40°
2026-04-25 21:24 14.10423 -17.81041 23663 ft 406 kts 45°
2026-04-25 21:24 14.12222 -17.78921 23374 ft 392 kts 48°
2026-04-25 21:25 14.13905 -17.76746 22768 ft 385 kts 50°
2026-04-25 21:25 14.15524 -17.74556 22043 ft 383 kts 51°
2026-04-25 21:25 14.17117 -17.72365 21364 ft 380 kts 51°
2026-04-25 21:25 14.18694 -17.70192 20685 ft 378 kts 51°
2026-04-25 21:26 14.20285 -17.68005 19584 ft 387 kts 51°
2026-04-25 21:26 14.21926 -17.65754 18599 ft 394 kts 51°
2026-04-25 21:26 14.23565 -17.63505 17851 ft 391 kts 51°
2026-04-25 21:26 14.25188 -17.61276 17137 ft 386 kts 51°
2026-04-25 21:27 14.26769 -17.59107 16536 ft 382 kts 51°
2026-04-25 21:27 14.28359 -17.56924 16057 ft 379 kts 51°
2026-04-25 21:27 14.29923 -17.54777 15871 ft 374 kts 52°
2026-04-25 21:27 14.31488 -17.52628 15337 ft 375 kts 52°
2026-04-25 21:28 14.33046 -17.50489 14720 ft 370 kts 52°
2026-04-25 21:28 14.34588 -17.48371 14006 ft 368 kts 52°
2026-04-25 21:28 14.36115 -17.46274 13297 ft 364 kts 52°
2026-04-25 21:28 14.37627 -17.44195 12560 ft 360 kts 53°
2026-04-25 21:29 14.38973 -17.42058 11812 ft 354 kts 68°
2026-04-25 21:29 14.39551 -17.39658 11119 ft 347 kts 90°
2026-04-25 21:29 14.39252 -17.37249 10483 ft 336 kts 111°
2026-04-25 21:29 14.38421 -17.35029 9927 ft 328 kts 114°
2026-04-25 21:30 14.37585 -17.32898 9795 ft 313 kts 114°
2026-04-25 21:30 14.36789 -17.30858 9688 ft 298 kts 114°
2026-04-25 21:30 14.36031 -17.28917 9191 ft 290 kts 114°
2026-04-25 21:30 14.35529 -17.27653 8955 ft 286 kts 114°
2026-04-25 21:31 14.34520 -17.25154 8406 ft 280 kts 114°
2026-04-25 21:31 14.33758 -17.23312 7932 ft 279 kts 114°
2026-04-25 21:31 14.32981 -17.21478 7463 ft 279 kts 114°
2026-04-25 21:31 14.32191 -17.19656 7010 ft 278 kts 114°
2026-04-25 21:32 14.31398 -17.17866 6570 ft 278 kts 114°
2026-04-25 21:32 14.30646 -17.16038 6082 ft 276 kts 103°
2026-04-25 21:32 14.30544 -17.14094 5634 ft 270 kts 84°
2026-04-25 21:32 14.30655 -17.12167 5255 ft 267 kts 84°
2026-04-25 21:33 14.30751 -17.10262 4849 ft 265 kts 84°
2026-04-25 21:33 14.30837 -17.08405 4711 ft 252 kts 84°
2026-04-25 21:33 14.30944 -17.06647 4477 ft 241 kts 72°
2026-04-25 21:33 14.31713 -17.05178 4180 ft 231 kts 43°
2026-04-25 21:34 14.33062 -17.04370 3931 ft 225 kts 12°
2026-04-25 21:34 14.34562 -17.04346 3859 ft 223 kts 349°
2026-04-25 21:34 14.36014 -17.04979 3853 ft 224 kts 327°
2026-04-25 21:34 14.37085 -17.06101 3875 ft 214 kts 315°
2026-04-25 21:35 14.38220 -17.06801 3882 ft 176 kts 346°
2026-04-25 21:35 14.39381 -17.06980 3857 ft 163 kts 356°
2026-04-25 21:35 14.40495 -17.07027 3874 ft 160 kts 359°
2026-04-25 21:35 14.41598 -17.07040 3873 ft 157 kts 359°
2026-04-25 21:36 14.42688 -17.07052 3860 ft 158 kts 359°
2026-04-25 21:36 14.43773 -17.07062 3863 ft 153 kts 359°
2026-04-25 21:36 14.44814 -17.07072 3877 ft 147 kts 359°
2026-04-25 21:36 14.45828 -17.07081 3865 ft 146 kts 360°
2026-04-25 21:37 14.46852 -17.07091 3753 ft 149 kts 360°
2026-04-25 21:37 14.47539 -17.07098 3649 ft 149 kts 359°
2026-04-25 21:37 14.48896 -17.07110 3392 ft 145 kts
2026-04-25 21:37 14.49905 -17.07120 3215 ft 145 kts 359°
2026-04-25 21:38 14.50922 -17.07131 3030 ft 146 kts 360°
2026-04-25 21:38 14.51921 -17.07138 2846 ft 141 kts
2026-04-25 21:38 14.52909 -17.07150 2674 ft 143 kts 359°
2026-04-25 21:38 14.53919 -17.07158 2488 ft 148 kts
2026-04-25 21:39 14.54944 -17.07167 2304 ft 147 kts
2026-04-25 21:39 14.55952 -17.07177 2117 ft 145 kts
2026-04-25 21:39 14.56957 -17.07185 1936 ft 145 kts
2026-04-25 21:39 14.57940 -17.07196 1753 ft 140 kts
2026-04-25 21:40 14.58916 -17.07207 1575 ft 139 kts
2026-04-25 21:40 14.59887 -17.07214 1401 ft 138 kts 360°
2026-04-25 21:40 14.60835 -17.07223 1214 ft 136 kts 360°
2026-04-25 21:40 14.61783 -17.07235 1033 ft 138 kts 359°
2026-04-25 21:41 14.62753 -17.07243 854 ft 140 kts 359°
2026-04-25 21:41 14.63718 -17.07249 678 ft 136 kts 359°
2026-04-25 21:41 14.64654 -17.07259 490 ft 134 kts 359°
2026-04-25 21:41 14.65586 -17.07263 333 ft 135 kts 359°
2026-04-25 21:42 14.66456 -17.07270 280 ft 108 kts 358°
2026-04-25 21:42 14.67058 -17.07282 278 ft 69 kts 359°
2026-04-25 21:42 14.67441 -17.07287 274 ft 43 kts 359°
2026-04-25 21:42 14.67651 -17.07266 272 ft 23 kts 20°
2026-04-25 21:43 14.67758 -17.07212 272 ft 0 kts 30°
2026-04-25 21:43 14.67761 -17.07210 272 ft 3 kts 30°
2026-04-25 21:43 14.67792 -17.07191 271 ft 7 kts 30°
2026-04-25 21:44 14.67818 -17.07156 272 ft 6 kts 88°
2026-04-25 21:44 14.67802 -17.07119 272 ft 7 kts 149°
2026-04-25 21:44 14.67641 -17.07098 273 ft 15 kts 175°
2026-04-25 21:45 14.67577 -17.07092 274 ft 9 kts 168°
2026-04-25 21:45 14.67541 -17.07068 274 ft 9 kts 112°
2026-04-25 21:45 14.67534 -17.07033 274 ft 5 kts 99°
2026-04-25 21:45 14.67537 -17.07015 274 ft 2 kts 42°
2026-04-25 21:46 14.67556 -17.07005 274 ft 5 kts 19°
2026-04-25 21:46 14.67605 -17.06990 273 ft 9 kts 12°
2026-04-25 21:46 14.67673 -17.06978 273 ft 11 kts
2026-04-25 21:46 14.67756 -17.06975 272 ft 13 kts 359°
2026-04-25 21:47 14.67849 -17.06981 272 ft 14 kts 355°
2026-04-25 21:47 14.67951 -17.06988 271 ft 15 kts 356°
2026-04-25 21:47 14.68019 -17.06992 271 ft 10 kts 357°
2026-04-25 21:47 14.68073 -17.06992 271 ft 0 kts 15°
2026-04-25 21:48 14.68087 -17.06978 270 ft 6 kts 56°
2026-04-25 21:48 14.68097 -17.06931 270 ft 9 kts 89°
2026-04-25 21:48 14.68097 -17.06916 270 ft 1 kts 89°
2026-04-25 21:48 14.68097 -17.06913 270 ft 0 kts 90°